Tracking 30703 objects as of 14-Jun-2025
HD Live streaming from Space Station
objects crossing your sky now

ARIANE 1 DEB

Track ARIANE 1 DEB now!
10-day predictions


NORAD ID: 40778
Int'l Code: 1979-104AF
Perigee: 551.1 km
Apogee: 13,579.0 km
Inclination: 18.0 °
Period: 258.3 minutes
Semi major axis: 13436 km
RCS: Unknown
Launch date: December 24, 1979
Source: European Space Agency (ESA)
Launch site: FRENCH GUIANA (FRGUI)

Note: This is SATELLITE DEBRIS
Your satellite tracking list
Your tracking list is empty




NASA's NSSDC Master Catalog

Two Line Element Set (TLE):
1 40778U 79104AF  25162.38931394  .00000698  00000-0  14073-2 0  9993
2 40778  17.9570 183.5429 4848138   4.0905   8.6590  5.57437174233787
Source of the keplerian elements: AFSPC